Content
SEND FEEDBACK

Daily
Averages
Monthly
Summary
Switzerland

PAYERNE, SWITZERLAND


Home > Europe > Switzerland
Elevation: 1463 feet     Latitude: 46 50N     Longitude: 006 55E

WEATHER
 
SELECT A DAY
Number of Records: 94,721;   Date Range: 12/15/98 - 12/23/14
 
SHARE

PRINT THIS DATA

[ ← Previous Day ]
WEATHER ALMANAC - JANUARY 16, 2013
[ Next Day → ]
[ °C ]   °F
Weather ElementAverageHighLow
Temperature18.6 °F23 °F (12:50 am)12.2 °F (11:20 pm)
Dewpoint14.4 °F21.2 °F (1:20 am)8.6 °F (11:20 pm)
Humidity83.9 %93 % (1:20 am)68 % (3:50 pm)
Barometer29.60 in29.65 in (1:20 am)29.53 in (2:20 pm)
Wind Speed4.9 mph11.5 mph (11:50 pm)
Weather ElementAverage
Visibility5 mi
Wind DirectionESE (95.7 °)

Weather ElementTotal
Precipitation---
Heating Degree Days47.4 (Base 65)
Averaged from 47 records on January 16, 2013
WEATHER CONDITIONS BREAKOUT
WIND DIRECTION BREAKOUT
WEATHER BY HOUR - JANUARY 16, 2013
[ °C ]   °F
Local TimeTemperatureDewpointHumidityBarometerVisibilityWind DirectionWind SpeedGust SpeedPrecipitationEventsConditions
12:50 AM23.0 °F19.4 °F86 %29.62 in1.5 miWSW (250°)4.6 mphSnowLight Snow
1:20 AM23.0 °F21.2 °F93 %29.65 in1.7 miWSW (250°)9.2 mphSnowLight Snow
1:50 AM21.2 °F19.4 °F93 %29.65 in6.2 miWest (270°)10.4 mphSnowLight Snow
2:20 AM21.2 °F15.8 °F80 %29.65 in6.2 miWSW (250°)8.1 mphScattered Clouds
2:50 AM19.4 °F15.8 °F86 %29.65 in6.2 miWest (260°)6.9 mphMostly Cloudy
3:20 AM19.4 °F15.8 °F86 %29.65 in6.2 miWest (270°)8.1 mphMostly Cloudy
3:50 AM19.4 °F14.0 °F80 %29.65 in6.2 miWSW (250°)8.1 mphPartly Cloudy
4:20 AM17.6 °F14.0 °F86 %29.65 in6.2 miWest (270°)8.1 mphMostly Cloudy
4:50 AM17.6 °F14.0 °F86 %29.65 in6.2 miVariable9.2 mphOvercast
5:20 AM17.6 °F14.0 °F86 %29.62 in6.2 miWest (260°)10.4 mphSnowLight Snow
5:50 AM17.6 °F14.0 °F86 %29.62 in6.2 miWSW (240°)6.9 mphSnowLight Snow
6:20 AM17.6 °F14.0 °F86 %29.62 inVariable3.5 mphSnowLight Snow
6:50 AM17.6 °F14.0 °F86 %29.62 in3.7 miWSW (250°)4.6 mphSnowLight Snow
7:20 AM17.6 °F15.8 °F93 %29.62 in3.7 miWest (270°)4.6 mphSnowLight Snow
7:50 AM17.6 °F14.0 °F86 %29.62 in6.2 miWest (260°)4.6 mphMostly Cloudy
8:20 AM17.6 °F14.0 °F86 %29.62 in3.7 miWest (270°)5.8 mphSnowLight Snow
8:50 AM17.6 °F14.0 °F86 %29.62 in6.2 miWest (260°)4.6 mphMostly Cloudy
9:20 AM17.6 °F15.8 °F93 %29.62 in3.7 miSSW (210°)4.6 mphSnowLight Snow
9:50 AM17.6 °F15.8 °F93 %29.62 in5.6 miVariable4.6 mphSnowLight Snow Showers
10:20 AM17.6 °F14.0 °F86 %29.59 in5.6 miVariable3.5 mphSnowLight Snow Showers
10:50 AM17.6 °F15.8 °F93 %29.59 in6.2 miVariable2.3 mphPartly Cloudy
11:20 AM19.4 °F14.0 °F80 %29.59 in5.6 miVariable1.2 mphMostly Cloudy
11:50 AM19.4 °F14.0 °F80 %29.59 in6.2 miVariable2.3 mphMostly Cloudy
12:20 PM19.4 °F14.0 °F80 %29.59 in6.2 miVariable2.3 mphMostly Cloudy
12:50 PM21.2 °F14.0 °F74 %29.56 in6.2 miVariable2.3 mphMostly Cloudy
1:20 PM19.4 °F14.0 °F80 %29.56 in5.6 miVariable2.3 mphSnowLight Snow Showers
1:50 PM21.2 °F14.0 °F74 %29.56 in5.6 miVariable1.2 mphSnowLight Snow Showers
2:20 PM21.2 °F14.0 °F74 %29.53 in6.2 miVariable1.2 mphSnowLight Snow
2:50 PM21.2 °F14.0 °F74 %29.53 in6.2 miNorth (10°)3.5 mphSnowLight Snow
3:20 PM21.2 °F14.0 °F74 %29.56 in6.2 miVariable3.5 mphSnowLight Snow Showers
3:50 PM21.2 °F12.2 °F68 %29.56 in6.2 miVariable1.2 mphSnowLight Snow Showers
4:20 PM21.2 °F14.0 °F74 %29.56 in5.6 miVariable2.3 mphSnowLight Snow Showers
4:50 PM19.4 °F14.0 °F80 %29.56 in5.0 miVariable2.3 mphSnowLight Snow
5:20 PM19.4 °F15.8 °F86 %29.56 inVariable1.2 mphSnowLight Snow
5:50 PM19.4 °F15.8 °F86 %29.56 in1.0 miCalmSnowSnow
6:20 PM19.4 °F15.8 °F86 %29.56 inVariable2.3 mphSnowLight Snow
6:50 PM17.6 °F14.0 °F86 %29.59 in1.0 miNNE (20°)4.6 mphSnowSnow
7:20 PM17.6 °F14.0 °F86 %29.59 inNE (40°)5.8 mphSnowLight Snow
7:50 PM17.6 °F14.0 °F86 %29.59 in1.1 miNNE (20°)4.6 mphSnowSnow
8:20 PM17.6 °F14.0 °F86 %29.59 in1.8 miVariable2.3 mphSnowLight Snow
8:50 PM17.6 °F14.0 °F86 %29.59 in1.0 miNNE (30°)5.8 mphSnowSnow
9:20 PM17.6 °F12.2 °F79 %29.59 in3.1 miNE (50°)8.1 mphSnowLight Snow
9:50 PM15.8 °F12.2 °F86 %29.59 in6.2 miNE (40°)5.8 mphSnowLight Snow
10:20 PM15.8 °F12.2 °F86 %29.62 in6.2 miNE (40°)5.8 mphOvercast
10:50 PM15.8 °F12.2 °F86 %29.62 in6.2 miENE (70°)8.1 mphOvercast
11:20 PM12.2 °F8.6 °F85 %29.62 in6.2 miNNE (30°)4.6 mphScattered Clouds
11:50 PM14.0 °F10.4 °F86 %29.65 in6.2 miENE (60°)11.5 mphSnowLight Snow
Hourly data recorded from LSGC, located miles away from Payerne, Switzerland







STORIES FROM OUR PARTNERS